Weather History for Point Lay, AK

Change the Weather History Date:

Saturday, October 13, 2012

  Actual Average Record
Temperature  
Mean Temperature 28 °F -  
Max Temperature 31 °F 21 °F 32 °F (2003)
Min Temperature 26 °F 14 °F -1 °F (2008)
Degree Days  
Heating Degree Days 36    
Moisture  
Dew Point 23 °F    
Average Humidity 81    
Maximum Humidity 93    
Minimum Humidity 66    
Precipitation  
Precipitation 0.00 in - - ()
Sea Level Pressure  
Sea Level Pressure 29.69 in    
Wind  
Wind Speed 13 mph (West)    
Max Wind Speed 22 mph    
Max Gust Speed -    
Visibility 7 miles    
Events Snow    
Averages and records for this station are not official NWS values.
T = Trace of Precipitation, MM = Missing Value Source: NWS Daily Summary

Daily Weather History Graph

Daily Weather History Graph

Search for Another Location

Airport:

Trip Planner

Search our weather history database for the weather conditions in past years. The results will help you decide how hot, cold, wet, or windy it might be!

Date:

Astronomy

Oct. 13, 2012 Rise Set
Actual Time 9:58 AM AKDT 7:15 PM AKDT
Civil Twilight 8:56 AM AKDT 8:17 PM AKDT
Nautical Twilight 7:46 AM AKDT 9:26 PM AKDT
Astronomical Twilight 6:33 AM AKDT 10:39 PM AKDT
Moon 7:23 AM AKDT (10/13) 6:28 PM AKDT (10/13)
Length of Visible Light 11h 20m
Length of Day
9h 17m
Waning Crescent, 4% of the Moon is Illuminated
Oct 13
Waning Crescent
Oct 15
New
Oct 21
First Quarter
Oct 29
Full
Nov 6
Last Quarter

Hourly Weather History & Observations

Time (AKDT) Temp. Windchill Dew Point Humidity Pressure Visibility Wind Dir Wind Speed Gust Speed Precip Events Conditions
12:56 AM 30.2 °F 20.8 °F 24.8 °F 80% 29.85 in 10.0 mi NNW 11.5 mph - N/A   Mostly Cloudy
1:42 AM 30.2 °F 21.9 °F 24.8 °F 80% 29.84 in 10.0 mi NNW 9.2 mph - 0.00 in   Mostly Cloudy
1:56 AM 31.1 °F 20.9 °F 25.2 °F 79% 29.85 in 10.0 mi NW 13.8 mph - 0.00 in   Mostly Cloudy
2:56 AM 30.0 °F 21.1 °F 27.1 °F 89% 29.84 in 10.0 mi NNW 10.4 mph - 0.00 in   Mostly Cloudy
3:56 AM 30.2 °F 20.2 °F 24.8 °F 80% 29.81 in 10.0 mi NNW 12.7 mph - N/A   Mostly Cloudy
4:56 AM 30.0 °F 20.0 °F 24.1 °F 79% 29.82 in 10.0 mi NNW 12.7 mph - N/A   Mostly Cloudy
5:24 AM 28.4 °F 18.5 °F 24.8 °F 86% 29.80 in 10.0 mi NNW 11.5 mph - N/A   Scattered Clouds
5:36 AM 28.4 °F 17.5 °F 23.0 °F 80% 29.80 in 10.0 mi NW 13.8 mph - N/A   Mostly Cloudy
5:56 AM 29.1 °F 18.4 °F 23.0 °F 78% 29.81 in 10.0 mi NNW 13.8 mph - N/A   Mostly Cloudy
6:56 AM 28.4 °F 19.1 °F 21.2 °F 74% 29.78 in 10.0 mi NW 10.4 mph - N/A   Overcast
7:56 AM 29.1 °F 18.9 °F 21.0 °F 72% 29.78 in 10.0 mi NW 12.7 mph - N/A   Mostly Cloudy
8:23 AM 28.4 °F 18.0 °F 21.2 °F 74% 29.76 in 10.0 mi WNW 12.7 mph - N/A   Overcast
8:30 AM 28.4 °F 18.5 °F 21.2 °F 74% 29.76 in 10.0 mi West 11.5 mph - N/A   Mostly Cloudy
8:56 AM 29.1 °F 17.5 °F 21.0 °F 72% 29.77 in 10.0 mi WNW 16.1 mph - N/A   Scattered Clouds
9:44 AM 28.4 °F 18.0 °F 24.8 °F 86% 29.75 in 2.5 mi West 12.7 mph - 0.00 in   Mostly Cloudy
9:56 AM 28.4 °F 18.5 °F 24.8 °F 86% 29.74 in 10.0 mi West 11.5 mph - N/A   Overcast
10:28 AM 28.4 °F 15.8 °F 21.2 °F 74% 29.74 in 10.0 mi WNW 18.4 mph - N/A   Mostly Cloudy
10:56 AM 28.0 °F 17.5 °F 21.0 °F 75% 29.74 in 10.0 mi West 12.7 mph - N/A   Mostly Cloudy
11:49 AM 28.4 °F 18.0 °F 24.8 °F 86% 29.72 in 3.0 mi West 12.7 mph - 0.00 in   Overcast
11:56 AM 27.1 °F 14.9 °F 24.1 °F 88% 29.73 in 1.8 mi West 16.1 mph - 0.00 in   Overcast
12:02 PM 26.6 °F 14.7 °F 24.8 °F 93% 29.72 in 3.0 mi West 15.0 mph - 0.00 in   Mostly Cloudy
12:56 PM 28.4 °F 15.8 °F 24.8 °F 86% 29.70 in 9.0 mi West 18.4 mph - N/A   Mostly Cloudy
1:18 PM 28.4 °F 19.7 °F 23.0 °F 80% 29.70 in 10.0 mi West 9.2 mph - N/A   Mostly Cloudy
1:56 PM 28.0 °F 16.5 °F 23.0 °F 81% 29.70 in 3.0 mi West 15.0 mph - 0.00 in   Overcast
1:59 PM 28.4 °F 17.0 °F 23.0 °F 80% 29.69 in 1.8 mi West 15.0 mph - 0.00 in Snow Light Snow
2:05 PM 26.6 °F 16.2 °F 24.8 °F 93% 29.69 in 1.2 mi West 11.5 mph - 0.00 in Snow Light Snow
2:08 PM 26.6 °F 15.2 °F 24.8 °F 93% 29.68 in 1.5 mi West 13.8 mph - 0.00 in Snow Light Snow
2:12 PM 28.4 °F 16.2 °F 24.8 °F 86% 29.68 in 3.0 mi WNW 17.3 mph - 0.00 in Snow Light Snow
2:23 PM 28.4 °F 16.6 °F 21.2 °F 74% 29.68 in 10.0 mi West 16.1 mph - 0.00 in   Mostly Cloudy
2:56 PM 29.1 °F 17.9 °F 19.0 °F 66% 29.68 in 10.0 mi West 15.0 mph - 0.00 in   Overcast
3:56 PM 28.4 °F 17.0 °F 21.2 °F 74% 29.66 in 10.0 mi West 15.0 mph - N/A   Mostly Cloudy
4:30 PM 26.6 °F 14.3 °F 24.8 °F 93% 29.65 in 2.0 mi WSW 16.1 mph - 0.00 in Snow Light Snow
4:32 PM 26.6 °F 14.3 °F 24.8 °F 93% 29.65 in 1.8 mi WSW 16.1 mph - 0.00 in Snow Light Snow
4:37 PM 26.6 °F 15.7 °F 24.8 °F 93% 29.64 in 1.2 mi West 12.7 mph - 0.00 in Snow Light Snow
4:45 PM 26.6 °F 17.5 °F 24.8 °F 93% 29.64 in 2.0 mi WSW 9.2 mph - 0.00 in Snow Light Snow
4:56 PM 28.0 °F 14.3 °F 22.1 °F 78% 29.64 in 10.0 mi West 21.9 mph - 0.00 in Snow Light Snow
5:24 PM 28.4 °F 17.0 °F 21.2 °F 74% 29.63 in 2.5 mi West 15.0 mph - 0.00 in Snow Light Snow
5:30 PM 28.4 °F 17.0 °F 21.2 °F 74% 29.63 in 4.0 mi WSW 15.0 mph - 0.00 in Snow Light Snow
5:56 PM 28.0 °F 16.1 °F 21.0 °F 75% 29.63 in 10.0 mi West 16.1 mph - 0.00 in   Overcast
6:56 PM 28.4 °F 16.6 °F 21.2 °F 74% 29.60 in 10.0 mi West 16.1 mph - N/A   Mostly Cloudy
7:26 PM 28.4 °F 16.2 °F 21.2 °F 74% 29.60 in 2.5 mi WSW 17.3 mph - 0.00 in Snow Light Snow
7:41 PM 26.6 °F 15.2 °F 21.2 °F 80% 29.59 in 10.0 mi WSW 13.8 mph - 0.00 in Snow Light Snow
7:56 PM 28.0 °F 18.1 °F 22.1 °F 78% 29.60 in 10.0 mi WSW 11.5 mph - 0.00 in   Mostly Cloudy
8:29 PM 26.6 °F 15.7 °F 23.0 °F 86% 29.58 in 2.0 mi West 12.7 mph - 0.00 in Snow Light Snow
8:36 PM 26.6 °F 16.2 °F 24.8 °F 93% 29.58 in 6.0 mi West 11.5 mph - 0.00 in Snow Light Snow
8:56 PM 29.1 °F 17.5 °F 21.0 °F 72% 29.58 in 10.0 mi West 16.1 mph - 0.00 in   Scattered Clouds
9:03 PM 28.4 °F 15.8 °F 24.8 °F 86% 29.57 in 4.0 mi WNW 18.4 mph - 0.00 in Snow Light Snow
9:56 PM 26.6 °F 16.2 °F 21.2 °F 80% 29.56 in 10.0 mi WSW 11.5 mph - N/A   Mostly Cloudy
10:24 PM 28.4 °F 17.5 °F 24.8 °F 86% 29.55 in 10.0 mi SW 13.8 mph - 0.00 in   Mostly Cloudy
10:56 PM 28.0 °F 18.1 °F 24.1 °F 85% 29.55 in 9.0 mi WSW 11.5 mph - 0.00 in Snow Light Snow
11:24 PM 28.4 °F 16.2 °F 24.8 °F 86% 29.53 in 10.0 mi WSW 17.3 mph - 0.00 in   Mostly Cloudy
11:39 PM 28.4 °F 15.8 °F 21.2 °F 74% 29.52 in 10.0 mi WSW 18.4 mph - 0.00 in   Overcast
11:56 PM 29.1 °F 16.4 °F 20.1 °F 69% 29.53 in 10.0 mi WSW 19.6 mph - 0.00 in   Overcast